Regional Weather Roundup
Issued by NWS

Home | Current Version | Previous Version | Text Only | Print | Product List | Glossary Off
Versions: 1 2 3 4 5 6 7 8 9 10 11 12 13 14 15 16 17 18 19 20 21 22 23 24 25 26 27 28 29 30 31 32 33 34 35 36 37 38 39 40 41 42 43 44 45 46 47 48 49 50

000
ASUS43 KLSX 232157
RWRMO

WEATHER SUMMARY FOR MISSOURI
NATIONAL WEATHER SERVICE SPRINGFIELD MO
500 PM CDT SAT JUL 23 2016

NOTE: "FAIR" INDICATES FEW OR NO CLOUDS BELOW 12,000 FEET WITH NO
       SIGNIFICANT WEATHER AND/OR OBSTRUCTIONS TO VISIBILITY.
       CURRENT SKY AND/OR WEATHER CONDITIONS ARE NOT AVAILABLE FOR
       CHILLICOTHE AND FARMINGTON.

MOZ001>031-035>038-043-044-053-054-232300-
...NORTHERN AND WESTERN MISSOURI...

CITY           SKY/WX    TMP DP  RH WIND       PRES   REMARKS
KANSAS CTY INT CLOUDY    90  74  59 S13       29.89F HX  99
LEE`S SUMMIT   SUNNY     94  72  48 S10       29.89F HX 102
ST JOSEPH      MOSUNNY   91  75  59 S10       29.85F HX 101

$$
MOZ066>068-077>081-088>096-101>105-232300-
...SOUTHWEST MISSOURI...

CITY           SKY/WX    TMP DP  RH WIND       PRES   REMARKS
SPRINGFIELD    SUNNY     97  66  36 CALM      29.92F HX 100
JOPLIN         SUNNY     96  73  47 S7        29.91F HX 105
BRANSON        MOSUNNY   95  72  46 CALM      29.95F HX 103

$$
MOZ032>034-039>042-045>050-055>058-069>072-232300-
...CENTRAL MISSOURI...

CITY           SKY/WX    TMP DP  RH WIND       PRES   REMARKS
COLUMBIA       NOT AVBL
JEFFERSON CITY SUNNY     95  72  47 S6        29.88F HX 103
SEDALIA        SUNNY     97  75  49 S10       29.91F HX 109

$$
MOZ051-052-059>065-232300-
...EAST CENTRAL MISSOURI...

CITY           SKY/WX    TMP DP  RH WIND       PRES   REMARKS
ST LOUIS INTL  MOSUNNY   95  72  47 VRB7      29.92F HX 103

$$
MOZ072>076-082>087-097>100-106>115-232300-
...SOUTH CENTRAL AND SOUTHEAST MISSOURI...

CITY           SKY/WX    TMP DP  RH WIND       PRES   REMARKS
CAPE GIRARDEAU MOSUNNY   92  74  55 SE3       29.91F HX 101
POPLAR BLUFF   PTSUNNY   93  76  57 E6        29.90F HX 105
WEST PLAINS    CLOUDY    93  74  53 E8        29.96F HX 103

$$



USA.gov is the U.S. government's official web portal to all federal, state and local government web resources and services.